This demonstration page uses our WeatherBlox Daily Observations layout. Learn more.

Left ArrowRight Arrow

39.01783, -85.05884

Hourly Observations for May 9, 2019

Temp ( °F °C ) Dew Point ( °F °C ) Humidity (%) Winds ( mph kmh ) Pressure ( in mb ) Visibility ( mi km ) Precip ( " mm )
12:52 am 00:52 Mostly Cloudy 71 21.7 58 14.4 63 63 SSE 12 19 29.87 1012 10 16 0.00 0.00
1:52 am 01:52 Cloudy 70 21.1 59 15 68 68 S 9 15 29.87 1012 10 16 0.00 0.00
2:52 am 02:52 Mostly Cloudy 70 21.1 59 15 68 68 S 10 17 29.86 1011 10 16 0.00 0.00
3:52 am 03:52 Mostly Cloudy 70 21.1 59 15 68 68 S 12 19 29.84 1011 10 16 0.00 0.00
4:52 am 04:52 Cloudy 69 20.6 59 15 70 70 S 12 19 29.84 1010 10 16 0.00 0.00
5:52 am 05:52 Cloudy 69 20.6 60 15.6 73 73 SSE 12 19 29.83 1010 10 16 0.00 0.00
6:52 am 06:52 Cloudy 69 20.6 60 15.6 73 73 SSE 10 17 29.82 1010 10 16 0.00 0.00
7:52 am 07:52 Cloudy with Light Rain 70 21.1 61 16.1 73 73 S 12 19 29.83 1010 10 16 0.00 0.03
8:52 am 08:52 Cloudy 70 21.1 62 16.7 76 76 S 20 31 29.82 1010 10 16 0.01 0.25
9:52 am 09:52 Cloudy 72 22.2 62 16.7 71 71 S 18 30 29.81 1010 10 16 0.00 0.00
10:52 am 10:52 Cloudy 76 24.4 64 17.8 67 67 SSW 12 19 29.82 1010 10 16 0.00 0.00
11:52 am 11:52 Cloudy 78 25.6 63 17.2 60 60 SW 17 28 29.83 1010 10 16 0.00 0.00
12:52 pm 12:52 Cloudy 75 23.9 62 16.7 64 64 SSW 20 31 29.85 1011 10 16 0.00 0.00
1:17 pm 13:17 Cloudy with Light Rain 71 21.7 64 17.8 79 79 SSW 14 22 29.86 1011 2 2 0.01 0.25
1:19 pm 13:19 Cloudy with Light Rain 70 21.1 64 17.8 82 82 SW 14 22 29.86 1011 7 11 0.05 1.27
1:52 pm 13:52 Cloudy 73 22.8 64 17.8 74 74 SW 17 28 29.85 1011 10 16 0.05 1.27
2:52 pm 14:52 Mostly Cloudy 76 24.4 64 17.8 67 67 SSW 10 17 29.84 1010 10 16 0.00 0.00
3:52 pm 15:52 Cloudy with Light Rain 72 22.2 63 17.2 73 73 SSW 14 22 29.85 1011 10 16 0.00 0.03
4:52 pm 16:52 Cloudy with Light Rain 69 20.6 65 18.3 87 87 SSW 15 24 29.86 1011 5 8 0.03 0.76
5:52 pm 17:52 Cloudy 68 20 63 17.2 84 84 SSW 9 15 29.86 1011 10 16 0.03 0.76
6:52 pm 18:52 Cloudy with Light Rain 68 20 64 17.8 87 87 SSW 8 13 29.87 1012 10 16 0.00 0.03
7:52 pm 19:52 Cloudy 68 20 63 17.2 84 84 S 9 15 29.85 1011 10 16 0.00 0.03
8:52 pm 20:52 Mostly Cloudy 67 19.4 63 17.2 87 87 S 8 13 29.85 1011 10 16 0.00 0.00
9:52 pm 21:52 Cloudy 65 18.3 63 17.2 93 93 S 10 17 29.86 1011 10 16 0.00 0.00
10:06 pm 22:06 Cloudy 65 18.3 62 16.7 90 90 S 12 19 29.87 1012 10 16 0.00 0.00
10:52 pm 22:52 Mostly Cloudy 65 18.3 63 17.2 93 93 S 8 13 29.88 1012 10 16 0.00 0.00
11:52 pm 23:52 Cloudy 64 17.8 62 16.7 93 93 SW 7 11 29.88 1012 10 16 0.00 0.00

Powered by AerisWeather